Weather History for KIML - July, 2012

Change the Weather History Date:

Wednesday, July 4, 2012

  Actual Average Record
Temperature  
Mean Temperature 87 °F 75 °F  
Max Temperature 106 °F 90 °F 106 °F (1978)
Min Temperature 67 °F 60 °F 42 °F (1915)
Degree Days  
Heating Degree Days 0 0  
Month to date heating degree days 0 0  
Since 1 June heating degree days 2 34  
Cooling Degree Days 22 10  
Month to date cooling degree days 70 40  
Year to date cooling degree days 519 268  
Since 1 June cooling degree days 442 224  
Growing Degree Days 36 (Base 50)    
Moisture  
Dew Point 60 °F    
Average Humidity 48    
Maximum Humidity 78    
Minimum Humidity 17    
Precipitation  
Precipitation 0.74 in 0.09 in 2.32 in (1931)
Sea Level Pressure  
Sea Level Pressure 29.77 in    
Wind  
Wind Speed 8 mph (East)    
Max Wind Speed 41 mph    
Max Gust Speed 52 mph    
Visibility 9 miles    
Events Rain , Thunderstorm    
T = Trace of Precipitation, MM = Missing Value Source: NWS Daily Summary

Daily Weather History Graph

Daily Weather History Graph

Search for Another Location

Airport or City:

Trip Planner

Search our weather history database for the weather conditions in past years. The results will help you decide how hot, cold, wet, or windy it might be!

Date:

Astronomy

Jul. 04, 2012 Rise Set
Actual Time 5:21 AM MDT 8:20 PM MDT
Civil Twilight 4:48 AM MDT 8:53 PM MDT
Nautical Twilight 4:06 AM MDT 9:34 PM MDT
Astronomical Twilight 3:18 AM MDT 10:23 PM MDT
Moon 8:59 PM MDT (7/4) 6:26 AM MDT (7/4)
Length of Visible Light 16h 04m
Length of Day
14h 58m
Full, 99% of the Moon is Illuminated
Jul 4
Full
Jul 10
Last Quarter
Jul 18
New
Jul 26
First Quarter
Aug 1
Full

Hourly Weather History & Observations

Time (MDT) Temp. Heat Index Dew Point Humidity Pressure Visibility Wind Dir Wind Speed Gust Speed Precip Events Conditions
12:53 AM 81.0 °F 80.8 °F 55.9 °F 42% 29.65 in 10.0 mi South 13.8 mph - N/A   Clear
1:53 AM 80.6 °F 80.5 °F 55.4 °F 42% 29.79 in 10.0 mi South 11.5 mph 20.7 mph N/A   Clear
2:53 AM 75.9 °F - 57.0 °F 52% 29.65 in 10.0 mi SSW 6.9 mph - N/A   Clear
3:53 AM 73.9 °F - 55.9 °F 53% 29.65 in 10.0 mi South 6.9 mph - N/A   Clear
4:53 AM 71.1 °F - 57.0 °F 61% 29.68 in 10.0 mi Calm Calm - N/A   Clear
5:53 AM 66.9 °F - 59.0 °F 76% 29.70 in 10.0 mi Calm Calm - N/A   Clear
6:53 AM 73.9 °F - 60.1 °F 62% 29.70 in 10.0 mi SE 5.8 mph - N/A   Clear
7:53 AM 79.0 °F - 60.1 °F 52% 29.70 in 10.0 mi SE 6.9 mph - N/A   Clear
8:53 AM 84.0 °F 83.8 °F 59.0 °F 43% 29.71 in 10.0 mi South 6.9 mph - N/A   Clear
9:53 AM 88.0 °F 86.7 °F 57.0 °F 35% 29.70 in 10.0 mi Variable 3.5 mph - N/A   Clear
10:53 AM 91.9 °F 90.0 °F 55.0 °F 29% 29.70 in 10.0 mi Variable 3.5 mph - N/A   Clear
11:53 AM 95.0 °F 94.0 °F 57.9 °F 29% 29.70 in 10.0 mi Calm Calm - N/A   Clear
12:53 PM 97.0 °F 95.3 °F 55.9 °F 25% 29.69 in 10.0 mi Variable 4.6 mph - N/A   Clear
1:53 PM 100.9 °F 98.7 °F 53.1 °F 20% 29.68 in 10.0 mi SSW 8.1 mph - N/A   Clear
2:53 PM 102.9 °F - 51.1 °F 18% 29.67 in 10.0 mi South 9.2 mph - N/A   Clear
3:53 PM 102.2 °F - 50.0 °F 17% 29.80 in 10.0 mi Variable 4.6 mph - N/A   Clear
4:53 PM 105.1 °F - 51.1 °F 16% 29.64 in 10.0 mi SSE 9.2 mph - N/A   Partly Cloudy
5:53 PM 99.0 °F - 52.0 °F 21% 29.66 in 10.0 mi South 6.9 mph - N/A   Clear
6:53 PM 97.0 °F 95.3 °F 55.9 °F 25% 29.66 in 10.0 mi NE 18.4 mph 24.2 mph N/A   Clear
7:39 PM 84.2 °F 85.0 °F 62.6 °F 48% 29.80 in 8.0 mi East 19.6 mph 27.6 mph 0.02 in Rain , Thunderstorm Light Thunderstorms and Rain
7:53 PM 80.1 °F 81.7 °F 64.0 °F 58% 29.70 in 10.0 mi East 17.3 mph 28.8 mph 0.02 in Thunderstorm Thunderstorm
8:18 PM 73.4 °F - 64.4 °F 73% 29.93 in 1.5 mi ESE 28.8 mph 47.2 mph 0.21 in Rain , Thunderstorm Heavy Thunderstorms and Rain
8:27 PM 71.6 °F - 64.4 °F 78% 29.86 in 0.8 mi ENE 12.7 mph 47.2 mph 0.49 in Rain , Thunderstorm Heavy Thunderstorms and Rain
8:31 PM 75.2 °F - 64.4 °F 69% 29.87 in 2.0 mi NE 11.5 mph 28.8 mph 0.49 in Rain , Thunderstorm Light Thunderstorms and Rain
8:38 PM 73.4 °F - 64.4 °F 73% 29.88 in 10.0 mi North 13.8 mph - 0.49 in Rain , Thunderstorm Light Thunderstorms and Rain
8:53 PM 72.0 °F - 64.9 °F 78% 29.74 in 10.0 mi NE 19.6 mph - 0.51 in Rain , Thunderstorm Light Thunderstorms and Rain
9:23 PM 71.6 °F - 66.2 °F 83% 29.87 in 10.0 mi ENE 12.7 mph - 0.00 in Rain Light Rain
9:53 PM 73.0 °F - 66.0 °F 79% 29.78 in 10.0 mi ENE 16.1 mph - 0.02 in   Scattered Clouds
10:37 PM 73.4 °F - 66.2 °F 78% 29.94 in 10.0 mi NNE 10.4 mph 18.4 mph N/A Thunderstorm Mostly Cloudy
10:48 PM 73.4 °F - 66.2 °F 78% 29.95 in 10.0 mi North 9.2 mph - N/A Thunderstorm Scattered Clouds
10:53 PM 73.0 °F - 66.9 °F 81% 29.83 in 10.0 mi NNW 9.2 mph - N/A Thunderstorm Scattered Clouds
11:09 PM 73.4 °F - 66.2 °F 78% 29.96 in 10.0 mi North 8.1 mph - N/A   Scattered Clouds
11:26 PM 73.4 °F - 66.2 °F 78% 29.96 in 10.0 mi NNE 5.8 mph - N/A Thunderstorm Mostly Cloudy
11:53 PM 73.9 °F - 66.0 °F 76% 29.86 in 9.0 mi NNW 11.5 mph - 0.01 in Rain , Thunderstorm Light Thunderstorms and Rain